www.pogodaiklimat.ru

Погода и климат >> Архив погоды >> Мексика >> Choix


ПОГОДА в Choix

  • Прогноз погоды в Choix
  • Монитор погоды в Choix
  • Климат города

АРХИВ ПОГОДЫ в Choix

Время (UTC), дата Ветер
(напр.,м/с)
 
Видим.   Явления Облачность Т
(С)
Тd
(С)
f
(%)
Тe
(С)
Тes
(С)
Комфортность P
(гПа)
Po
(гПа)
Тmin
(С)
Tmax
(С)
R
(мм)
R24
(мм)
S
(см)
00 16.05 СЗ 1 30 км ясно +41.1 +28.2 49 +61 +65 опасность
перегрева
1005.0 979.0 +18.8 +42.2
03 16.05 ЮЗ 2 2000 м ясно +33.5 +23.7 57 +45 +45 опасность
перегрева
1005.9 980.1
06 16.05 штиль 0 2000 м ясно +27.1 +19.0 61 +32 +32 очень
душно
1006.9 981.0 +18.8 +42.2
09 16.05 В 1 2000 м ясно +22.5 +16.3 68 +27 +27 душно 1006.6 980.4
12 16.05 ЮЗ 1 2000 м ясно +19.7 +15.0 74 +23 +23 комфорт 1006.3 979.6 +19.5 +42.2
15 16.05 штиль 0 30 км ясно +26.6 +20.0 67 +33 +41 очень
душно
1008.5 981.5
18 16.05 В 1 30 км ясно +38.7 +27.4 53 +57 +81 опасность
перегрева
1007.3 980.5 +18.7 +39.0
21 16.05 С 2 30 км ясно +43.9 +26.9 39 +60 +78 опасность
перегрева
1004.8 978.5
00 17.05 С 2 30 км ясно +42.6 +26.0 40 +57 +61 опасность
перегрева
1002.7 976.8 +18.7 +44.1
03 17.05 СЗ 2 2000 м ясно +35.3 +24.4 53 +47 +47 опасность
перегрева
1003.5 977.9
06 17.05 С 1 2000 м ясно +31.2 +22.3 59 +40 +40 очень
душно
1005.0 979.3 +18.7 +44.1
09 17.05 С 1 2000 м ясно +24.7 +18.1 67 +29 +29 душно 1005.8 979.8
12 17.05 штиль 0 2000 м ясно +20.8 +15.9 74 +24 +24 комфорт 1007.3 980.8 +20.6 +44.1
15 17.05 штиль 0 30 км ясно +29.5 +22.2 65 +38 +47 очень
душно
1009.0 982.2
18 17.05 СЗ 1 30 км ясно +37.7 +25.5 50 +52 +75 опасность
перегрева
1009.6 982.4 +20.1 +37.7
21 17.05 С 4 30 км 1/1 750 м
[Sc diur, vesp]
+41.1 +26.3 44 +56 +67 опасность
перегрева
1007.2 980.7
00 18.05 С 4 30 км ясно +40.9 +25.3 42 +54 +57 опасность
перегрева
1004.4 978.5 +20.1 +42.6
03 18.05 С 3 2000 м ясно +33.6 +22.4 52 +43 +43 опасность
перегрева
1004.9 979.2
09 18.05 штиль 0 2000 м ясно +24.0 +18.1 70 +28 +28 душно 1006.9 980.7
15 18.05 штиль 0 30 км ясно +27.5 +22.7 75 +36 +45 очень
душно
1009.6 982.5
18 18.05 С 1 30 км ясно +37.5 +29.5 64 +62 +86 опасность
перегрева
1008.6 981.7 +16.5 +37.8
21 18.05 С 3 30 км ясно +38.5 +29.7 61 +63 +79 опасность
перегрева
1007.0 980.5
00 19.05 СЗ 4 30 км ясно +39.2 +29.9 60 +65 +68 опасность
перегрева
1004.2 978.1 +16.5 +40.0
03 19.05 СЗ 2 2000 м ясно +31.8 +25.7 70 +47 +47 опасность
перегрева
1005.3 979.5
06 19.05 СЗ 1 2000 м ясно +25.7 +21.8 79 +33 +33 очень
душно
1007.0 981.0 +16.5 +40.0
09 19.05 штиль 0 2000 м ясно +19.8 +17.2 85 +22 +22 комфорт 1007.0 980.6
12 19.05 З 1 2000 м ясно +17.4 +15.2 87 +18 +18 1007.7 980.8 +17.2 +40.0
15 19.05 З 1 30 км ясно +25.7 +23.1 86 +34 +42 очень
душно
1009.3 982.1
18 19.05 штиль 0 30 км ясно +36.8 +28.1 61 +57 +85 опасность
перегрева
1008.5 981.2 +16.2 +38.0
21 19.05 штиль 0 30 км ясно +38.7 +28.9 58 +61 +86 опасность
перегрева
1007.0 980.1
00 20.05 З 1 30 км ясно +37.8 +29.2 62 +62 +66 опасность
перегрева
1004.4 978.2 +16.2 +40.0
03 20.05 штиль 0 2000 м ясно +29.8 +24.0 71 +41 +41 опасность
перегрева
1005.9 979.9
06 20.05 штиль 0 2000 м ясно +24.8 +20.2 76 +31 +31 очень
душно
1007.7 981.7 +16.2 +40.0
09 20.05 штиль 0 2000 м ясно +21.1 +17.3 79 +25 +25 комфорт 1007.9 981.6
12 20.05 штиль 0 2000 м ясно +19.8 +18.5 92 +22 +22 комфорт 1008.7 981.9 +17.5 +40.0
15 20.05 штиль 0 30 км ясно +28.6 +23.7 75 +39 +48 очень
душно
1010.3 983.2
18 20.05 штиль 0 30 км ясно +37.4 +27.6 58 +57 +84 опасность
перегрева
1008.9 982.0 +17.5 +38.8
21 20.05 СЗ 2 30 км ясно +38.4 +27.9 55 +58 +76 опасность
перегрева
1007.0 980.5
00 21.05 СЗ 2 30 км ясно +38.4 +27.7 55 +58 +62 опасность
перегрева
1005.7 979.6 +17.5 +39.4
03 21.05 штиль 0 2000 м ясно +30.2 +23.0 65 +40 +40 очень
душно
1007.0 980.7
06 21.05 штиль 0 2000 м ясно +24.0 +18.9 73 +29 +29 душно 1008.0 981.8 +17.5 +39.4
09 21.05 штиль 0 2000 м ясно +20.3 +16.5 79 +23 +23 комфорт 1007.7 981.2
12 21.05 штиль 0 2000 м ясно +17.2 +14.2 83 +17 +17 1008.1 981.1 +17.0 +39.4
15 21.05 СЗ 1 30 км ясно +23.5 +19.1 76 +28 +36 душно 1010.1 982.8
18 21.05 СЗ 1 30 км ясно +34.8 +26.6 63 +52 +76 опасность
перегрева
1009.6 982.4 +16.7 +35.0
21 21.05 С 1 30 км ясно +37.6 +27.3 56 +56 +77 опасность
перегрева
1006.9 979.7
00 22.05 С 1 30 км ясно +37.6 +27.6 57 +57 +62 опасность
перегрева
1005.1 978.8 +16.7 +38.8
03 22.05 СЗ 1 2000 м ясно +29.8 +22.1 63 +38 +38 очень
душно
1007.3 981.2
06 22.05 штиль 0 5000 м ясно +25.6 +19.2 68 +31 +31 очень
душно
1008.7 982.5 +16.7 +38.8
09 22.05 штиль 0 2000 м ясно +20.8 +15.7 73 +24 +24 комфорт 1007.1 980.6
12 22.05 штиль 0 2000 м ясно +17.9 +13.9 77 +18 +18 1009.8 982.8 +17.7 +38.8
15 22.05 штиль 0 30 км ясно +23.2 +15.2 61 +27 +36 душно 1011.3 984.0
18 22.05 штиль 0 30 км ясно +34.5 +23.3 52 +45 +72 опасность
перегрева
1009.9 982.8 +17.7 +34.8

 

Местоположение метеостанции Choix (Мексика): широта 26.73 долгота -108.20 высота над уровнем моря 238 м.

В архиве по умолчанию представлена погода в Choix за последнюю неделю. Архивные данные за месяц целиком и за предыдущие месяцы, начиная с января 2011 года, Вы можете получить, выбрав интересующий диапазон дат из раскрывающегося списка и нажав кнопку "Ввод!".


*Определитесь, кто Вы:
робот инопланетянин человек

Внимание! Время в таблицах - всемирное. Для получения местного времени необходимо прибавить поправку, которая в Choix равна -6 ч.

Смотрите также архив погоды в соседних городах и на ближайших метеорологических станциях:

Погода в Ciudad Obregon (Мексика) (177 км)
Погода в Culiacan (Мексика) (229 км)
Погода в Temosachic (Мексика) (250 км)
Погода в Hidalgo del Parral (Мексика) (259 км)
Погода в Empalme (Мексика) (282 км)
Погода в Tepehuanes (Мексика) (292 км)
Погода в Guaymas (Мексика) (296 км)
Погода в Chihuahua (Мексика) (303 км)
Погода в Chihuahua University (Мексика) (303 км)
Погода в Loreto (Мексика) (319 км)

Пояснения к столбцам:

Ветер - указаны скорость ветра в м/с - средняя за 10 мин, порывы в срок и между сроками (в фигурных скобках) и направление, откуда дует ветер: С - северный, СВ - северо-восточный, В - восточный, ЮВ - юго-восточный, Ю - южный, ЮЗ - юго-западный, З - западный, СЗ - северо-западный.
Видимость - горизонтальная дальность видимости в метрах или километрах. При видимости от 1 до 10 км при отсутствии осадков обычно наблюдается дымка, при ухудшении видимости до 1 км и менее - туман. В сухую погоду видимость может ухудшаться дымом, пылью или мглою.
Явления - указаны атмосферные явления, наблюдавшиеся в срок или в последний час перед сроком; фигурными скобками обозначены явления, наблюдавшиеся между сроками (за 1-3 часа до срока); квадратными скобками обозначены град или гололедные отложения с указанием их диаметра в мм.
Облачность - указаны через наклонную черту общая и нижняя облачность в баллах и высота нижней границы облаков в метрах; квадратными скобками обозначены формы облаков: Ci - перистые, Cs - перисто-слоистые, Cc - перисто-кучевые, Ac - высококучевые, As - высокослоистые, Sc - слоисто-кучевые, Ns - слоисто-дождевые, Cu - кучевые, Cb - кучево-дождевые. Подробнее классификацию облаков см. в Атласе облаков (PDF).
T - Температура воздуха - температура, измеренная на высоте 2 м над землей.
Td - Температура точки росы - температура, при понижении до которой содержащийся в воздухе водяной пар достигнет насыщения.
f - Относительная влажность воздуха - влажноcть воздуха, измеренная на высоте 2 м над землей.
Te - Эффективная температура - температура, которую ощущает одетый по сезону человек в тени. Характеристика душности погоды. При расчете учитывается влияние влажности воздуха и скорости ветра на теплоощущения человека.
Tes - Эффективная температура на солнце - температура, которую ощущает человек, с поправкой на солнечный нагрев. Характеристика знойности погоды. Зависит от высоты солнца над горизонтом, облачности и скорости ветра. Ночью, в пасмурную погоду, а также при ветре 12 м/с и более поправка равна нулю.
P - Атмосферное давление - приведенное к уровню моря атмосферное давление.
Po - Атмосферное давление - измеренное на уровне метеостанции атмосферное давление.
Tmin - Минимальная температура - минимум температуры воздуха на высоте 2 м над землей.
Tmax - Максимальная температура - максимум температуры воздуха на высоте 2 м над землей.
R - Количество осадков - Количество выпавших осадков за период времени, мм. При наведении курсора мыши на число - период времени, за который выпало указанное количество осадков.
R24 - Количество осадков - Количество выпавших осадков за 24 часа, мм.
S - Снежный покров - Высота снежного покрова, см. При наведении курсора мыши на число - состояние снежного покрова и степень покрытия местности в баллах.